This is the latest recevied weather packets stored in our database for station/object N2RDT. If no packets are shown the sender has not sent any weather packets the latest 10 day(s).
| Time | Temp. | Humidity | Pressure | Rain* | Wind** | Luminosity | Snow |
|---|---|---|---|---|---|---|---|
| 1777483751 | 19.44° C | 78% | 1012.1 hPa | 0 mm | - | 152 W/m² | - |
| 1777483448 | 19.44° C | 78% | 1012.2 hPa | 0 mm | - | 113 W/m² | - |
| 1777483143 | 19.44° C | 79% | 1012.2 hPa | 0 mm | - | 121 W/m² | - |
| 1777482840 | 19.44° C | 77% | 1012.3 hPa | 0 mm | - | 161 W/m² | - |
| 1777482535 | 19.44° C | 78% | 1012.3 hPa | 0 mm | - | 153 W/m² | - |
| 1777482233 | 19.44° C | 77% | 1012.3 hPa | 0 mm | - | 203 W/m² | - |
| 1777481930 | 19.44° C | 77% | 1012.3 hPa | 0 mm | - | 318 W/m² | - |
| 1777481628 | 19.44° C | 77% | 1012.3 hPa | 0 mm | - | 346 W/m² | - |
| 1777481325 | 19.44° C | 78% | 1012.5 hPa | 0 mm | - | 285 W/m² | - |
| 1777481021 | 19.44° C | 78% | 1012.7 hPa | 0 mm | - | 349 W/m² | - |
| 1777480718 | 18.89° C | 80% | 1012.8 hPa | 0 mm | - | 305 W/m² | - |
| 1777480415 | 18.89° C | 79% | 1013 hPa | 0 mm | - | 180 W/m² | - |
| 1777480110 | 18.89° C | 79% | 1012.8 hPa | 0 mm | - | 185 W/m² | - |
| 1777479807 | 18.89° C | 80% | 1013 hPa | 0 mm | - | 179 W/m² | - |
| 1777479505 | 18.89° C | 80% | 1012.9 hPa | 0 mm | - | 166 W/m² | - |
| 1777479201 | 18.89° C | 80% | 1012.9 hPa | 0 mm | - | 188 W/m² | - |
| 1777478898 | 18.89° C | 79% | 1013.2 hPa | 0 mm | - | 171 W/m² | - |
| 1777478594 | 18.89° C | 80% | 1013.1 hPa | 0 mm | - | 181 W/m² | - |
| 1777478292 | 18.89° C | 80% | 1013.2 hPa | 0 mm | - | 164 W/m² | - |
| 1777477988 | 18.89° C | 80% | 1013.3 hPa | 0 mm | - | 137 W/m² | - |
| 1777477683 | 18.89° C | 80% | 1013.4 hPa | 0 mm | - | 132 W/m² | - |
| 1777477381 | 18.33° C | 80% | 1013.4 hPa | 0 mm | - | 141 W/m² | - |
| 1777477077 | 18.33° C | 80% | 1013.4 hPa | 0 mm | - | 148 W/m² | - |
| 1777476774 | 18.33° C | 79% | 1013.4 hPa | 0 mm | - | 153 W/m² | - |
| 1777476470 | 18.33° C | 80% | 1013.2 hPa | 0 mm | - | 168 W/m² | - |
* Rain latest hour (hover to see other rain measurements)
** Current wind speed in m/s (hover to see current wind gust speed)